White Plains, CT

9:13 AM EDT on September 16, 2019 (GMT -0400)
Westchester County

Weather History for KHPN - July, 2019

Change the Weather History Date:

Wednesday, July 24, 2019

  Actual Average Record
Temperature  
Mean Temperature 73 °F -  
Max Temperature 82 °F 80 °F 95 °F (1999)
Min Temperature 64 °F 62 °F 55 °F (1992)
Cooling Degree Days 8    
Growing Degree Days 23 (Base 50)    
Moisture  
Dew Point 60 °F    
Average Humidity 67    
Maximum Humidity 96    
Minimum Humidity 35    
Precipitation  
Precipitation 0.00 in - - ()
Sea Level Pressure  
Sea Level Pressure 29.93 in    
Wind  
Wind Speed 5 mph (North)    
Max Wind Speed 12 mph    
Max Gust Speed -    
Visibility 10 miles    
Events Rain    
Averages and records for this station are not official NWS values.
T = Trace of Precipitation, MM = Missing Value Source: NWS Daily Summary

Daily Weather History Graph

Daily Weather History Graph

Search for Another Location

Airport or City:

Astronomy

Jul. 24, 2019 Rise Set
Actual Time 5:42 AM EDT 8:19 PM EDT
Civil Twilight 5:11 AM EDT 8:50 PM EDT
Nautical Twilight 4:31 AM EDT 9:30 PM EDT
Astronomical Twilight 3:46 AM EDT 10:15 PM EDT
Moon 12:02 AM EDT (7/24) 12:55 PM EDT (7/24)
Length of Visible Light 15h 39m
Length of Day
14h 36m
Waning Gibbous, 54% of the Moon is Illuminated
Jul 24
Waning Gibbous
Jul 24
Last Quarter
Jul 31
New
Aug 7
First Quarter
Aug 15
Full

Hourly Weather History & Observations

Time (EDT) Temp. Heat Index Dew Point Humidity Pressure Visibility Wind Dir Wind Speed Gust Speed Precip Events Conditions
12:56 AM 66.9 °F - 64.9 °F 93% 29.89 in 9.0 mi East 3.5 mph - 0.00 in Rain Light Rain
1:56 AM 66.9 °F - 64.9 °F 93% 29.87 in 10.0 mi NNE 3.5 mph - 0.00 in Rain Light Rain
2:56 AM 66.9 °F - 64.9 °F 93% 29.88 in 10.0 mi NW 4.6 mph - 0.00 in   Mostly Cloudy
3:56 AM 66.0 °F - 64.0 °F 93% 29.88 in 10.0 mi Calm Calm - N/A   Mostly Cloudy
4:56 AM 64.9 °F - 63.0 °F 93% 29.90 in 10.0 mi NW 5.8 mph - N/A   Scattered Clouds
5:56 AM 64.0 °F - 63.0 °F 96% 29.91 in 10.0 mi NW 5.8 mph - N/A   Partly Cloudy
6:56 AM 66.9 °F - 64.0 °F 90% 29.92 in 10.0 mi NNW 10.4 mph - N/A   Partly Cloudy
7:56 AM 70.0 °F - 64.9 °F 84% 29.93 in 10.0 mi NNW 8.1 mph - N/A   Clear
8:56 AM 72.0 °F - 64.0 °F 76% 29.94 in 10.0 mi North 9.2 mph - N/A   Partly Cloudy
9:56 AM 73.9 °F - 63.0 °F 68% 29.94 in 10.0 mi NNW 5.8 mph - N/A   Partly Cloudy
10:56 AM 75.0 °F - 61.0 °F 62% 29.94 in 10.0 mi North 8.1 mph - N/A   Partly Cloudy
11:56 AM 77.0 °F - 59.0 °F 54% 29.93 in 10.0 mi NNE 10.4 mph - N/A   Partly Cloudy
12:56 PM 79.0 °F - 57.9 °F 48% 29.93 in 10.0 mi NNE 9.2 mph - N/A   Scattered Clouds
1:56 PM 81.0 °F 81.0 °F 57.0 °F 44% 29.93 in 10.0 mi Variable 3.5 mph - N/A   Scattered Clouds
2:56 PM 78.1 °F - 57.9 °F 50% 29.93 in 10.0 mi NW 6.9 mph - N/A   Scattered Clouds
3:56 PM 82.0 °F 82.0 °F 57.9 °F 44% 29.92 in 10.0 mi NNW 11.5 mph - N/A   Mostly Cloudy
4:56 PM 82.0 °F 81.4 °F 55.0 °F 39% 29.93 in 10.0 mi North 11.5 mph - N/A   Scattered Clouds
5:56 PM 81.0 °F - 51.1 °F 35% 29.94 in 10.0 mi North 10.4 mph - N/A   Partly Cloudy
6:56 PM 80.1 °F - 51.1 °F 36% 29.94 in 10.0 mi NNE 5.8 mph - N/A   Partly Cloudy
7:56 PM 77.0 °F - 52.0 °F 42% 29.96 in 10.0 mi North 4.6 mph - N/A   Clear
8:56 PM 73.0 °F - 54.0 °F 51% 29.98 in 10.0 mi NNE 4.6 mph - N/A   Clear
9:56 PM 66.9 °F - 57.0 °F 70% 30.01 in 10.0 mi Calm Calm - N/A   Clear
10:56 PM 68.0 °F - 59.0 °F 73% 30.01 in 10.0 mi Calm Calm - N/A   Clear
11:56 PM 66.9 °F - 59.0 °F 76% 30.01 in 10.0 mi WNW 3.5 mph - N/A   Clear